Вернуться в каталог

OPS 4682 DEB

АктивенPO
NORAD 19954·DEBRIS·🇺🇸 United States

Запущен Apr 3, 1965 с Vandenberg Space Force Base

Loading…

Ближайшие Пролёты (ближайшие 24 часа)

TLE

СвежийSource: Space-Track

Эпоха: Sep 11, 2026, 18:23 UTC

1 19954U 65027AZ  26254.76610381  .00000190  00000-0  56462-3 0  9995
2 19954  90.3765  82.0795 0029565 274.7419 100.0438 13.05261894786840

Отслеживайте OPS 4682 DEB в реальном времени с AllMySat

Download on the App Store